TimeEST,TemperatureF,Dew PointF,Humidity,Sea Level PressureIn,VisibilityMPH,Wind Direction,Wind SpeedMPH,Gust SpeedMPH,PrecipitationIn,Events,Conditions,WindDirDegrees,DateUTC
12:10 AM,30.2,30.2,100,30.09,4.0,Calm,Calm,-,0.00,,Clear,0,2012-11-08 05:10:00
12:30 AM,30.2,30.2,100,30.09,3.0,Calm,Calm,-,0.00,,Clear,0,2012-11-08 05:30:00
12:50 AM,30.2,30.2,100,30.09,3.0,Calm,Calm,-,0.00,,Clear,0,2012-11-08 05:50:00
1:10 AM,28.4,28.4,100,30.09,2.0,Calm,Calm,-,0.00,,Clear,0,2012-11-08 06:10:00
1:30 AM,30.2,30.2,100,30.10,0.2,Calm,Calm,-,0.00,,Unknown,0,2012-11-08 06:30:00
1:50 AM,30.2,30.2,100,30.10,0.2,Calm,Calm,-,0.00,,Unknown,0,2012-11-08 06:50:00
2:10 AM,28.4,28.4,100,30.11,0.2,Calm,Calm,-,0.00,,Unknown,0,2012-11-08 07:10:00
2:50 AM,28.4,28.4,100,30.11,1.5,Calm,Calm,-,0.00,,Clear,0,2012-11-08 07:50:00
3:10 AM,28.4,28.4,100,30.11,2.5,Calm,Calm,-,0.00,,Clear,0,2012-11-08 08:10:00
3:30 AM,26.6,26.6,100,30.11,3.0,Calm,Calm,-,0.00,,Clear,0,2012-11-08 08:30:00
3:50 AM,26.6,26.6,100,30.11,5.0,Calm,Calm,-,0.00,,Clear,0,2012-11-08 08:50:00
4:10 AM,26.6,26.6,100,30.12,5.0,Calm,Calm,-,0.00,,Clear,0,2012-11-08 09:10:00
4:30 AM,26.6,26.6,100,30.12,2.5,Calm,Calm,-,0.00,,Clear,0,2012-11-08 09:30:00
4:50 AM,26.6,26.6,100,30.12,0.2,Calm,Calm,-,0.00,,Mostly Cloudy,0,2012-11-08 09:50:00
5:10 AM,26.6,26.6,100,30.13,0.2,Calm,Calm,-,0.00,,Overcast,0,2012-11-08 10:10:00
5:30 AM,26.6,26.6,100,30.14,0.2,Calm,Calm,-,0.00,,Overcast,0,2012-11-08 10:30:00
5:50 AM,26.6,26.6,100,30.14,0.2,Calm,Calm,-,0.00,,Overcast,0,2012-11-08 10:50:00
6:10 AM,24.8,24.8,100,30.15,0.2,Calm,Calm,-,0.00,,Overcast,0,2012-11-08 11:10:00
6:30 AM,26.6,26.6,100,30.16,0.2,Calm,Calm,-,0.00,,Overcast,0,2012-11-08 11:30:00
6:50 AM,26.6,26.6,100,30.16,0.2,Calm,Calm,-,0.00,,Overcast,0,2012-11-08 11:50:00
7:10 AM,26.6,26.6,100,30.16,0.2,Calm,Calm,-,0.00,,Overcast,0,2012-11-08 12:10:00
7:50 AM,28.4,28.4,100,30.18,0.2,Calm,Calm,-,0.00,,Overcast,0,2012-11-08 12:50:00
8:10 AM,28.4,28.4,100,30.18,0.2,Calm,Calm,-,0.00,,Overcast,0,2012-11-08 13:10:00
8:30 AM,28.4,28.4,100,30.19,0.2,Calm,Calm,-,0.00,,Overcast,0,2012-11-08 13:30:00
8:50 AM,30.2,30.2,100,30.20,0.2,Calm,Calm,-,0.00,,Overcast,0,2012-11-08 13:50:00
9:10 AM,32.0,32.0,100,30.20,0.2,Calm,Calm,-,0.00,,Overcast,0,2012-11-08 14:10:00
9:30 AM,32.0,32.0,100,30.20,0.2,Calm,Calm,-,0.00,,Overcast,0,2012-11-08 14:30:00
9:50 AM,32.0,32.0,100,30.20,1.0,Calm,Calm,-,0.00,,Mostly Cloudy,0,2012-11-08 14:50:00
10:10 AM,35.6,35.6,100,30.20,1.0,Calm,Calm,-,0.00,,Mostly Cloudy,0,2012-11-08 15:10:00
10:30 AM,35.6,35.6,100,30.20,4.0,Calm,Calm,-,0.00,,Clear,0,2012-11-08 15:30:00
10:50 AM,37.4,37.4,100,30.20,7.0,Calm,Calm,-,0.00,,Clear,0,2012-11-08 15:50:00
11:30 AM,37.4,37.4,100,30.19,10.0,WSW,3.5,-,0.00,,Clear,250,2012-11-08 16:30:00
11:50 AM,39.2,33.8,81,30.19,10.0,West,3.5,-,0.00,,Clear,280,2012-11-08 16:50:00
12:10 PM,42.8,33.8,70,30.18,10.0,WNW,4.6,-,0.00,,Clear,290,2012-11-08 17:10:00
12:30 PM,44.6,35.6,71,30.18,10.0,WSW,6.9,-,0.00,,Partly Cloudy,250,2012-11-08 17:30:00
12:50 PM,44.6,33.8,66,30.17,10.0,WSW,6.9,-,0.00,,Scattered Clouds,240,2012-11-08 17:50:00
1:10 PM,44.6,32.0,61,30.16,10.0,West,6.9,-,0.00,,Scattered Clouds,270,2012-11-08 18:10:00
1:30 PM,46.4,32.0,57,30.16,10.0,West,4.6,-,0.00,,Clear,270,2012-11-08 18:30:00
1:50 PM,46.4,32.0,57,30.15,10.0,NW,5.8,-,0.00,,Clear,310,2012-11-08 18:50:00
2:10 PM,46.4,32.0,57,30.15,10.0,WSW,3.5,-,0.00,,Clear,240,2012-11-08 19:10:00
2:30 PM,46.4,32.0,57,30.14,10.0,WNW,6.9,-,0.00,,Clear,300,2012-11-08 19:30:00
2:50 PM,46.4,32.0,57,30.14,10.0,WSW,4.6,-,0.00,,Clear,250,2012-11-08 19:50:00
3:10 PM,46.4,32.0,57,30.13,10.0,WSW,4.6,-,0.00,,Clear,250,2012-11-08 20:10:00
3:30 PM,48.2,32.0,54,30.13,8.0,WSW,9.2,-,0.00,,Clear,240,2012-11-08 20:30:00
3:50 PM,46.4,33.8,62,30.13,10.0,SW,6.9,-,0.00,,Clear,230,2012-11-08 20:50:00
4:10 PM,46.4,33.8,62,30.14,10.0,WSW,6.9,-,0.00,,Clear,250,2012-11-08 21:10:00
4:30 PM,46.4,33.8,62,30.13,10.0,West,5.8,-,0.00,,Clear,270,2012-11-08 21:30:00
4:50 PM,44.6,33.8,66,30.13,10.0,West,4.6,-,0.00,,Partly Cloudy,270,2012-11-08 21:50:00
5:10 PM,44.6,33.8,66,30.14,10.0,Calm,Calm,-,0.00,,Partly Cloudy,0,2012-11-08 22:10:00
5:30 PM,42.8,32.0,66,30.14,10.0,West,3.5,-,0.00,,Mostly Cloudy,280,2012-11-08 22:30:00
5:50 PM,44.6,33.8,66,30.14,10.0,Calm,Calm,-,0.00,,Overcast,0,2012-11-08 22:50:00
6:10 PM,42.8,33.8,70,30.14,10.0,Calm,Calm,-,0.00,,Mostly Cloudy,0,2012-11-08 23:10:00
6:30 PM,41.0,33.8,76,30.14,10.0,Calm,Calm,-,0.00,,Partly Cloudy,0,2012-11-08 23:30:00
6:50 PM,39.2,32.0,75,30.14,10.0,Calm,Calm,-,0.00,,Clear,0,2012-11-08 23:50:00
7:10 PM,37.4,32.0,81,30.14,10.0,Calm,Calm,-,0.00,,Clear,0,2012-11-09 00:10:00
7:30 PM,37.4,32.0,81,30.14,10.0,Calm,Calm,-,0.00,,Clear,0,2012-11-09 00:30:00
7:50 PM,35.6,33.8,93,30.14,10.0,Calm,Calm,-,0.00,,Clear,0,2012-11-09 00:50:00
8:10 PM,33.8,32.0,93,30.14,8.0,Calm,Calm,-,0.00,,Clear,0,2012-11-09 01:10:00
8:30 PM,35.6,32.0,87,30.14,9.0,Calm,Calm,-,0.00,,Clear,0,2012-11-09 01:30:00
8:50 PM,33.8,32.0,93,30.14,8.0,Calm,Calm,-,0.00,,Clear,0,2012-11-09 01:50:00
9:10 PM,33.8,32.0,93,30.14,8.0,Calm,Calm,-,0.00,,Clear,0,2012-11-09 02:10:00
9:30 PM,33.8,32.0,93,30.14,7.0,Calm,Calm,-,0.00,,Clear,0,2012-11-09 02:30:00
9:50 PM,33.8,32.0,93,30.14,6.0,Calm,Calm,-,0.00,,Clear,0,2012-11-09 02:50:00
10:10 PM,32.0,32.0,100,30.14,6.0,Calm,Calm,-,0.00,,Clear,0,2012-11-09 03:10:00
10:30 PM,32.0,32.0,100,30.14,5.0,Calm,Calm,-,0.00,,Clear,0,2012-11-09 03:30:00
10:50 PM,32.0,32.0,100,30.14,5.0,Calm,Calm,-,0.00,,Clear,0,2012-11-09 03:50:00
11:10 PM,32.0,32.0,100,30.14,5.0,Calm,Calm,-,0.00,,Clear,0,2012-11-09 04:10:00
11:30 PM,32.0,32.0,100,30.14,5.0,Calm,Calm,-,0.00,,Clear,0,2012-11-09 04:30:00
11:50 PM,32.0,32.0,100,30.14,5.0,Calm,Calm,-,0.00,,Clear,0,2012-11-09 04:50:00